TimeCDT,TemperatureF,Dew PointF,Humidity,Sea Level PressureIn,VisibilityMPH,Wind Direction,Wind SpeedMPH,Gust SpeedMPH,PrecipitationIn,Events,Conditions,WindDirDegrees,DateUTC
12:15 AM,44.6,42.1,91,30.25,7.0,North,11.5,16.1,N/A,,Overcast,10,2012-10-07 05:15:00
12:35 AM,44.6,42.3,91,30.25,10.0,North,12.7,-,N/A,,Overcast,10,2012-10-07 05:35:00
12:55 AM,44.4,41.7,90,30.25,10.0,NNE,12.7,16.1,N/A,,Overcast,20,2012-10-07 05:55:00
1:15 AM,44.1,40.6,88,30.24,10.0,NNE,18.4,-,N/A,,Overcast,20,2012-10-07 06:15:00
1:35 AM,44.1,40.3,87,30.25,10.0,NNE,18.4,-,N/A,,Overcast,30,2012-10-07 06:35:00
1:55 AM,43.9,39.9,86,30.26,10.0,NNE,13.8,21.9,N/A,,Overcast,30,2012-10-07 06:55:00
2:15 AM,43.9,39.7,85,30.26,10.0,NE,15.0,-,N/A,,Overcast,40,2012-10-07 07:15:00
2:35 AM,43.9,39.6,85,30.27,10.0,NNE,12.7,-,N/A,,Overcast,20,2012-10-07 07:35:00
2:55 AM,43.9,38.8,82,30.27,10.0,NNE,13.8,-,N/A,,Overcast,30,2012-10-07 07:55:00
3:15 AM,44.1,38.3,80,30.26,10.0,NNE,10.4,19.6,N/A,,Overcast,30,2012-10-07 08:15:00
3:35 AM,44.6,37.8,77,30.26,10.0,NNE,12.7,-,N/A,,Overcast,30,2012-10-07 08:35:00
3:55 AM,44.6,36.7,74,30.26,10.0,NNE,12.7,-,N/A,,Overcast,30,2012-10-07 08:55:00
4:15 AM,44.8,36.1,72,30.26,10.0,NNE,15.0,-,N/A,,Overcast,30,2012-10-07 09:15:00
4:35 AM,44.8,36.0,71,30.26,10.0,NNE,10.4,-,N/A,,Overcast,30,2012-10-07 09:35:00
4:55 AM,44.8,35.6,70,30.26,10.0,NNE,11.5,-,N/A,,Overcast,30,2012-10-07 09:55:00
5:15 AM,45.0,35.4,69,30.27,10.0,NNE,8.1,-,N/A,,Overcast,30,2012-10-07 10:15:00
5:35 AM,45.0,35.2,69,30.26,10.0,NNE,12.7,-,N/A,,Overcast,30,2012-10-07 10:35:00
5:55 AM,45.1,35.1,68,30.27,10.0,NNE,10.4,-,N/A,,Overcast,30,2012-10-07 10:55:00
6:15 AM,45.1,35.1,68,30.27,10.0,NNE,9.2,-,N/A,,Overcast,30,2012-10-07 11:15:00
6:35 AM,45.5,34.9,66,30.28,10.0,NNE,10.4,-,N/A,,Overcast,30,2012-10-07 11:35:00
6:55 AM,45.5,34.9,66,30.28,10.0,NNE,11.5,-,N/A,,Overcast,30,2012-10-07 11:55:00
7:15 AM,45.5,34.7,66,30.28,10.0,NNE,12.7,16.1,N/A,,Overcast,30,2012-10-07 12:15:00
7:35 AM,45.5,34.2,65,30.28,10.0,NNE,12.7,-,N/A,,Overcast,30,2012-10-07 12:35:00
7:55 AM,45.3,34.5,66,30.28,10.0,NE,10.4,-,N/A,,Overcast,40,2012-10-07 12:55:00
8:15 AM,45.5,34.9,66,30.29,10.0,NE,10.4,-,N/A,,Overcast,40,2012-10-07 13:15:00
8:35 AM,45.5,35.1,67,30.28,10.0,NNE,9.2,-,N/A,,Overcast,30,2012-10-07 13:35:00
8:55 AM,45.7,35.4,67,30.29,10.0,NE,10.4,-,N/A,,Overcast,50,2012-10-07 13:55:00
9:15 AM,45.9,35.4,67,30.29,10.0,NE,11.5,-,N/A,,Overcast,40,2012-10-07 14:15:00
9:35 AM,46.2,35.6,66,30.30,10.0,NE,6.9,-,N/A,,Overcast,40,2012-10-07 14:35:00
9:55 AM,46.4,36.0,67,30.30,10.0,NNE,11.5,-,N/A,,Overcast,30,2012-10-07 14:55:00
10:15 AM,46.6,36.1,67,30.30,10.0,NE,9.2,-,N/A,,Overcast,40,2012-10-07 15:15:00
10:35 AM,46.8,36.1,67,30.30,10.0,NNE,10.4,-,N/A,,Overcast,30,2012-10-07 15:35:00
10:55 AM,46.9,36.3,67,30.30,10.0,NNE,9.2,-,N/A,,Overcast,30,2012-10-07 15:55:00
11:15 AM,47.3,36.5,66,30.30,10.0,NE,6.9,-,N/A,,Overcast,40,2012-10-07 16:15:00
11:35 AM,47.8,36.7,65,30.29,10.0,NNE,9.2,-,N/A,,Overcast,30,2012-10-07 16:35:00
11:55 AM,48.2,36.7,64,30.28,10.0,ENE,8.1,-,N/A,,Overcast,60,2012-10-07 16:55:00
12:15 PM,48.7,36.9,64,30.27,10.0,NE,10.4,-,N/A,,Overcast,50,2012-10-07 17:15:00
12:35 PM,49.1,37.0,63,30.27,10.0,NE,12.7,-,N/A,,Overcast,40,2012-10-07 17:35:00
12:55 PM,48.7,36.9,64,30.27,10.0,NNE,8.1,-,N/A,,Overcast,30,2012-10-07 17:55:00
1:15 PM,48.4,36.7,64,30.26,10.0,NNE,8.1,-,N/A,,Overcast,30,2012-10-07 18:15:00
1:35 PM,48.2,36.5,64,30.26,10.0,NE,5.8,-,N/A,,Overcast,40,2012-10-07 18:35:00
1:55 PM,48.6,36.5,63,30.25,10.0,NNE,11.5,-,N/A,,Overcast,20,2012-10-07 18:55:00
2:35 PM,49.1,35.6,60,30.22,10.0,NNE,6.9,-,N/A,,Overcast,30,2012-10-07 19:35:00
2:55 PM,49.1,35.6,60,30.21,10.0,NE,8.1,-,N/A,,Overcast,40,2012-10-07 19:55:00
3:15 PM,49.3,34.9,58,30.21,10.0,NNE,6.9,-,N/A,,Overcast,30,2012-10-07 20:15:00
3:35 PM,49.5,34.5,56,30.21,10.0,NNE,8.1,-,N/A,,Overcast,20,2012-10-07 20:35:00
3:55 PM,50.0,34.7,56,30.20,10.0,NE,9.2,-,N/A,,Overcast,40,2012-10-07 20:55:00
4:15 PM,49.6,34.5,56,30.20,10.0,NE,5.8,-,N/A,,Overcast,40,2012-10-07 21:15:00
4:35 PM,49.8,35.2,57,30.20,10.0,NNE,8.1,-,N/A,,Overcast,30,2012-10-07 21:35:00
4:55 PM,49.6,35.4,58,30.20,10.0,NNE,11.5,-,N/A,,Overcast,30,2012-10-07 21:55:00
5:15 PM,49.3,35.1,58,30.20,10.0,NNE,6.9,-,N/A,,Overcast,30,2012-10-07 22:15:00
5:35 PM,49.1,35.2,59,30.20,10.0,NE,9.2,-,N/A,,Overcast,40,2012-10-07 22:35:00
5:55 PM,48.7,35.6,60,30.20,10.0,NNE,8.1,-,N/A,,Overcast,30,2012-10-07 22:55:00
6:15 PM,48.4,35.8,62,30.21,10.0,NE,6.9,-,N/A,,Overcast,40,2012-10-07 23:15:00
6:35 PM,48.2,36.1,63,30.21,10.0,NNE,9.2,-,N/A,,Overcast,20,2012-10-07 23:35:00
6:55 PM,48.0,35.4,62,30.23,10.0,North,9.2,-,N/A,,Overcast,10,2012-10-07 23:55:00
7:15 PM,47.5,35.6,63,30.24,10.0,NNE,8.1,-,N/A,,Overcast,20,2012-10-08 00:15:00
7:35 PM,47.3,35.1,62,30.23,10.0,NE,9.2,-,N/A,,Overcast,40,2012-10-08 00:35:00
7:55 PM,47.3,35.2,63,30.24,10.0,NE,6.9,-,N/A,,Overcast,50,2012-10-08 00:55:00
8:15 PM,47.3,35.2,63,30.24,10.0,NE,4.6,-,N/A,,Overcast,50,2012-10-08 01:15:00
8:55 PM,47.3,35.4,63,30.23,10.0,East,4.6,-,N/A,,Overcast,90,2012-10-08 01:55:00
9:15 PM,47.3,35.4,63,30.24,10.0,NE,4.6,-,N/A,,Overcast,40,2012-10-08 02:15:00
9:35 PM,47.3,35.2,63,30.25,10.0,NE,5.8,-,N/A,,Overcast,40,2012-10-08 02:35:00
9:55 PM,47.3,35.1,62,30.26,10.0,NNE,4.6,-,N/A,,Overcast,20,2012-10-08 02:55:00
10:15 PM,47.3,34.9,62,30.26,10.0,NNE,8.1,-,N/A,,Overcast,30,2012-10-08 03:15:00
10:35 PM,46.9,34.2,61,30.25,10.0,NE,3.5,-,N/A,,Overcast,50,2012-10-08 03:35:00
10:55 PM,46.9,34.2,61,30.25,10.0,NE,3.5,-,N/A,,Overcast,40,2012-10-08 03:55:00
11:15 PM,46.9,34.0,61,30.25,10.0,NE,3.5,-,N/A,,Overcast,50,2012-10-08 04:15:00
11:35 PM,46.8,33.6,60,30.25,10.0,ENE,3.5,-,N/A,,Overcast,60,2012-10-08 04:35:00
11:55 PM,46.6,33.4,60,30.24,10.0,NNE,3.5,-,N/A,,Overcast,30,2012-10-08 04:55:00